This is the latest recevied weather packets stored in our database for station/object K7ZQU-7. If no packets are shown the sender has not sent any weather packets the latest 10 day(s).
| Time | Temp. | Humidity | Pressure | Rain* | Wind** | Luminosity | Snow |
|---|---|---|---|---|---|---|---|
| 1777993346 | 8.89° C | 89% | 1013 hPa | 0 mm | 0.89 m/s, 278° | - | - |
| 1777993044 | 8.33° C | 89% | 1013 hPa | 0 mm | 0.89 m/s, 297° | - | - |
| 1777992745 | 8.33° C | 89% | 1013 hPa | 0 mm | 1.34 m/s, 330° | - | - |
| 1777992445 | 8.33° C | 91% | 1012.8 hPa | 0 mm | 0.45 m/s, 308° | - | - |
| 1777992147 | 8.33° C | 91% | 1013 hPa | 0 mm | 0.45 m/s, 311° | - | - |
| 1777991847 | 8.33° C | 92% | 1012.8 hPa | 0 mm | 0.45 m/s, 304° | - | - |
| 1777991546 | 8.33° C | 92% | 1013 hPa | 0 mm | 0 m/s | - | - |
| 1777991246 | 8.33° C | 93% | 1012.8 hPa | 0 mm | 1.34 m/s, 323° | - | - |
| 1777990649 | 8.33° C | 93% | 1012.7 hPa | 0 mm | 1.79 m/s, 312° | - | - |
| 1777990048 | 8.33° C | 93% | 1012.7 hPa | 0 mm | 0.45 m/s, 198° | - | - |
| 1777989749 | 8.33° C | 93% | 1012.6 hPa | 0 mm | 0 m/s | - | - |
| 1777989450 | 7.78° C | 93% | 1012.6 hPa | 0 mm | 0.45 m/s, 311° | - | - |
| 1777989151 | 8.33° C | 93% | 1012.6 hPa | 0 mm | 1.79 m/s, 305° | - | - |
| 1777988852 | 8.33° C | 92% | 1012.6 hPa | 0 mm | 0.89 m/s, 271° | - | - |
| 1777988550 | 8.33° C | 93% | 1012.5 hPa | 0 mm | 0.89 m/s, 339° | - | - |
| 1777988251 | 7.78° C | 92% | 1012.5 hPa | 0 mm | 1.34 m/s, 290° | - | - |
| 1777987952 | 7.78° C | 92% | 1012.4 hPa | 0 mm | 0.89 m/s, 300° | - | - |
| 1777987653 | 7.78° C | 92% | 1012.4 hPa | 0 mm | 1.79 m/s, 283° | - | - |
| 1777987354 | 7.78° C | 92% | 1012.4 hPa | 0 mm | 0.45 m/s, 269° | - | - |
| 1777987052 | 7.78° C | 91% | 1012.2 hPa | 0 mm | 1.34 m/s, 315° | - | - |
| 1777986753 | 7.78° C | 91% | 1012.2 hPa | 0 mm | 0.45 m/s, 277° | - | - |
| 1777986454 | 7.78° C | 91% | 1012.2 hPa | 0 mm | 0.45 m/s, 297° | - | - |
| 1777986155 | 7.78° C | 91% | 1012.2 hPa | 0 mm | 0 m/s | - | - |
| 1777985856 | 7.78° C | 92% | 1012.2 hPa | 0 mm | 1.34 m/s, 302° | - | - |
| 1777985554 | 8.33° C | 92% | 1012.2 hPa | 0 mm | 1.34 m/s, 322° | - | - |
* Rain latest hour (hover to see other rain measurements)
** Current wind speed in m/s (hover to see current wind gust speed)